Weather History for Auburn-Lewiston, ME

Change the Weather History Date:

Saturday, March 16, 2013

  Actual Average Record
Temperature  
Mean Temperature 27 °F -  
Max Temperature 33 °F 36 °F 42 °F (1999)
Min Temperature 21 °F 20 °F 10 °F (2014)
Degree Days  
Heating Degree Days 38    
Moisture  
Dew Point 11 °F    
Average Humidity 51    
Maximum Humidity 69    
Minimum Humidity 32    
Precipitation  
Precipitation 0.00 in - - ()
Sea Level Pressure  
Sea Level Pressure 29.73 in    
Wind  
Wind Speed 7 mph (NW)    
Max Wind Speed 13 mph    
Max Gust Speed 21 mph    
Visibility 10 miles    
Events      
Averages and records for this station are not official NWS values.
T = Trace of Precipitation, MM = Missing Value Source: NWS Daily Summary

Daily Weather History Graph

Daily Weather History Graph

Search for Another Location

Airport:

Trip Planner

Search our weather history database for the weather conditions in past years. The results will help you decide how hot, cold, wet, or windy it might be!

Date:

Astronomy

Mar. 16, 2013 Rise Set
Actual Time 6:51 AM EDT 6:48 PM EDT
Civil Twilight 6:22 AM EDT 7:17 PM EDT
Nautical Twilight 5:48 AM EDT 7:51 PM EDT
Astronomical Twilight 5:14 AM EDT 8:25 PM EDT
Moon 9:08 AM EDT (3/16) No Moon Set
Length of Visible Light 12h 55m
Length of Day
11h 57m
Waxing Crescent, 23% of the Moon is Illuminated
Mar 16
Waxing Crescent
Mar 19
First Quarter
Mar 27
Full
Apr 3
Last Quarter
Apr 10
New

Hourly Weather History & Observations

Time (EDT) Temp. Windchill Dew Point Humidity Pressure Visibility Wind Dir Wind Speed Gust Speed Precip Events Conditions
12:15 AM 28.4 °F - 19.4 °F 69% 29.60 in 10.0 mi Calm Calm - N/A   Overcast
12:35 AM 28.4 °F 24.6 °F 19.4 °F 69% 29.61 in 10.0 mi WNW 3.5 mph - N/A   Mostly Cloudy
12:55 AM 28.4 °F 23.3 °F 19.4 °F 69% 29.62 in 10.0 mi WNW 4.6 mph - N/A   Partly Cloudy
1:55 AM 28.4 °F 18.5 °F 15.8 °F 59% 29.64 in 10.0 mi NW 11.5 mph 20.7 mph N/A   Clear
2:15 AM 28.4 °F 20.4 °F 14.0 °F 55% 29.64 in 10.0 mi NW 8.1 mph 17.3 mph N/A   Clear
2:35 AM 28.4 °F 18.5 °F 12.2 °F 51% 29.65 in 10.0 mi NW 11.5 mph 18.4 mph N/A   Clear
2:55 AM 26.6 °F 16.8 °F 12.2 °F 55% 29.66 in 10.0 mi NW 10.4 mph - N/A   Clear
3:15 AM 26.6 °F 16.2 °F 12.2 °F 55% 29.66 in 10.0 mi NW 11.5 mph - N/A   Clear
3:35 AM 26.6 °F 16.8 °F 12.2 °F 55% 29.67 in 10.0 mi NNW 10.4 mph - N/A   Clear
3:55 AM 26.6 °F 17.5 °F 12.2 °F 55% 29.68 in 10.0 mi NW 9.2 mph - N/A   Clear
4:15 AM 26.6 °F 16.8 °F 12.2 °F 55% 29.69 in 10.0 mi NW 10.4 mph - N/A   Clear
4:35 AM 24.8 °F 15.3 °F 12.2 °F 59% 29.69 in 10.0 mi NNW 9.2 mph - N/A   Clear
5:15 AM 24.8 °F 20.5 °F 12.2 °F 59% 29.71 in 10.0 mi NNW 3.5 mph - N/A   Clear
5:35 AM 23.0 °F - 12.2 °F 63% 29.72 in 10.0 mi Calm Calm - N/A   Clear
5:55 AM 21.2 °F - 12.2 °F 68% 29.74 in 10.0 mi Calm Calm - N/A   Clear
6:15 AM 24.8 °F 15.3 °F 12.2 °F 59% 29.74 in 10.0 mi NNW 9.2 mph - N/A   Clear
6:35 AM 23.0 °F 15.8 °F 12.2 °F 63% 29.75 in 10.0 mi NNW 5.8 mph - N/A   Clear
6:55 AM 23.0 °F 14.7 °F 10.4 °F 59% 29.76 in 10.0 mi North 6.9 mph - N/A   Clear
7:15 AM 23.0 °F 17.0 °F 10.4 °F 59% 29.77 in 10.0 mi NW 4.6 mph - N/A   Clear
7:35 AM 23.0 °F 15.8 °F 12.2 °F 63% 29.78 in 10.0 mi NW 5.8 mph - N/A   Clear
7:55 AM 24.8 °F 14.6 °F 10.4 °F 54% 29.78 in 10.0 mi NNW 10.4 mph - N/A   Clear
8:35 AM 24.8 °F 16.1 °F 10.4 °F 54% 29.80 in 10.0 mi NNW 8.1 mph - N/A   Clear
8:55 AM 24.8 °F 15.3 °F 10.4 °F 54% 29.80 in 10.0 mi NNW 9.2 mph - N/A   Clear
9:15 AM 26.6 °F 16.8 °F 8.6 °F 47% 29.80 in 10.0 mi NW 10.4 mph 16.1 mph N/A   Clear
9:35 AM 26.6 °F 15.7 °F 8.6 °F 47% 29.80 in 10.0 mi North 12.7 mph - N/A   Scattered Clouds
9:55 AM 26.6 °F 18.2 °F 10.4 °F 51% 29.80 in 10.0 mi NNW 8.1 mph - N/A   Scattered Clouds
10:15 AM 26.6 °F 15.7 °F 8.6 °F 47% 29.79 in 10.0 mi NNW 12.7 mph 16.1 mph N/A   Clear
10:35 AM 28.4 °F 20.4 °F 8.6 °F 43% 29.79 in 10.0 mi NW 8.1 mph - N/A   Partly Cloudy
10:55 AM 28.4 °F 19.1 °F 8.6 °F 43% 29.78 in 10.0 mi NNW 10.4 mph 16.1 mph N/A   Mostly Cloudy
11:15 AM 28.4 °F 21.2 °F 8.6 °F 43% 29.78 in 10.0 mi NNW 6.9 mph - N/A   Mostly Cloudy
11:35 AM 30.2 °F 20.2 °F 10.4 °F 44% 29.78 in 10.0 mi NW 12.7 mph - N/A   Mostly Cloudy
11:55 AM 30.2 °F 20.2 °F 8.6 °F 40% 29.78 in 10.0 mi NNW 12.7 mph - N/A   Partly Cloudy
12:15 PM 30.2 °F 20.2 °F 8.6 °F 40% 29.78 in 10.0 mi NW 12.7 mph 16.1 mph N/A   Partly Cloudy
12:55 PM 30.2 °F 21.3 °F 6.8 °F 37% 29.78 in 10.0 mi NW 10.4 mph - N/A   Partly Cloudy
1:15 PM 32.0 °F 25.6 °F 6.8 °F 35% 29.77 in 10.0 mi NNW 6.9 mph - N/A   Scattered Clouds
1:35 PM 30.2 °F 23.4 °F 6.8 °F 37% 29.77 in 10.0 mi NW 6.9 mph - N/A   Scattered Clouds
1:55 PM 33.8 °F 26.4 °F 6.8 °F 32% 29.76 in 10.0 mi NW 9.2 mph - N/A   Mostly Cloudy
2:15 PM 33.8 °F 28.6 °F 6.8 °F 32% 29.76 in 10.0 mi WSW 5.8 mph 17.3 mph N/A   Partly Cloudy
2:35 PM 33.8 °F 25.3 °F 6.8 °F 32% 29.75 in 10.0 mi NNW 11.5 mph 18.4 mph N/A   Mostly Cloudy
2:55 PM 33.8 °F 25.3 °F 6.8 °F 32% 29.75 in 10.0 mi NW 11.5 mph 17.3 mph N/A   Mostly Cloudy